Flag for Switzerland Weather past 2 weeks in Chur, Graubünden, Switzerland

Now
61 °F

Cool.


Feels Like: 61 °F
Forecast: 61 / 85 °F
Wind: 5 mph from Northeast

Location: Chur-Ems

Current Time: Aug 2, 2015 at 1:07:33 AM

Latest Report: Aug 2, 2015 at 12:00 AM


Visibility: N/A

Pressure: 30.06 "Hg (28.03 "Hg at 592m altitude)

Humidity: 95%

Dew point: 59 °F

Location of ChurLocation

Historic Weather in Chur — Graph

°F

Chur temperature yesterday

Maximum temperature yesterday: 71 °F (at 5:00 PM)
Minimum temperature yesterday: 59 °F (at 11:00 AM)
Average temperature yesterday: 65 °F

Past Weeks' High & Low Weather Summary

 TemperatureHumidityPressure
High92 °F (Jul 22, 4:00 PM)96% (Jul 27, 1:00 AM)30.17 "Hg (Jul 27, 1:00 AM)
Low51 °F (Jul 31, 7:00 AM)31% (Jul 22, 12:00 PM)29.65 "Hg (Jul 24, 7:00 PM)
Average69 °F66%29.91 "Hg
* Reported Jul 17 10:00 PM — Aug 1 10:00 PM, Chur, Weather by CustomWeather, © 2015

Note: Actual official high and low records may vary slightly from our data, if they occured in-between our weather recording intervals... More about our weather records

Advertising

Chur weather history for previous 24 hours

 ConditionsComfort  
Time TempWeatherWind HumidityBarometerVisibility
10:00 PM
Sat, Aug 1
62 °FCool.6 mph94%30.03 "HgN/A
9:00 PM62 °FCool.5 mph94%30.00 "HgN/A
7:00 PM64 °FMild.3 mph88%29.97 "HgN/A
6:00 PM69 °FMild.7 mph68%29.92 "HgN/A
5:00 PM71 °FPartly sunny.3 mph64%29.90 "Hg12 mi
4:00 PM69 °FMild.5 mph64%29.93 "HgN/A
3:00 PM69 °FMild.6 mph69%29.94 "HgN/A
2:00 PM65 °FPartly sunny.2 mph77%29.98 "Hg12 mi
1:00 PM64 °FMild.5 mph84%30.00 "HgN/A
12:00 PM60 °FCool.5 mph90%30.03 "HgN/A
11:00 AM59 °FLight rain. Overcast.7 mph94%30.02 "Hg5 mi
10:00 AM60 °FCool.10 mph89%30.00 "HgN/A
9:00 AM61 °FCool.7 mph89%29.97 "HgN/A
8:00 AM62 °FOvercast.1 mph84%29.91 "Hg12 mi
7:00 AM66 °FMild.3 mph61%29.87 "HgN/A
4:00 AM66 °FMild.5 mph60%29.88 "HgN/A
3:00 AM68 °FMild.8 mph51%29.87 "HgN/A
2:00 AM67 °FPassing clouds.8 mph56%29.88 "Hg10 mi
1:00 AM66 °FMild.6 mph58%29.90 "HgN/A
Weather by CustomWeather, © 2015

See weather overviewHow to use our weather pages